Change the Weather History Date:

Saturday, January 21, 2012

  Actual Average Record
Temperature  
Mean Temperature 27 °F 31 °F  
Max Temperature 29 °F 39 °F 61 °F (1999)
Min Temperature 24 °F 23 °F -7 °F (2011)
Degree Days  
Heating Degree Days 38 34  
Month to date heating degree days 647 714  
Since 1 July heating degree days 2117 2513  
Cooling Degree Days 0 0  
Month to date cooling degree days 0 0  
Year to date cooling degree days 0 0  
Moisture  
Dew Point 22 °F    
Average Humidity 87    
Maximum Humidity 92    
Minimum Humidity 81    
Precipitation  
Precipitation T in 0.04 in 1.22 in (1993)
Month to date precipitation 1.50 1.78  
Year to date precipitation 1.50 1.78  
Sea Level Pressure  
Sea Level Pressure 30.15 in    
Wind  
Wind Speed 11 mph (NE)    
Max Wind Speed 18 mph    
Max Gust Speed 23 mph    
Visibility 6 miles    
Events      
T = Trace of Precipitation, MM = Missing Value Source: NWS Daily Summary

Daily Weather History Graph

Daily Weather History Graph

Search for Another Location

Airport or City:

Trip Planner

Search our weather history database for the weather conditions in past years. The results will help you decide how hot, cold, wet, or windy it might be!

Date:

Astronomy

Jan. 21, 2012 Rise Set
Actual Time 7:04 AM CST 4:58 PM CST
Civil Twilight 6:35 AM CST 5:27 PM CST
Nautical Twilight 6:03 AM CST 6:00 PM CST
Astronomical Twilight 5:31 AM CST 6:31 PM CST
Moon 5:34 AM CST (1/21) 3:34 PM CST (1/21)
Length of Visible Light 10h 51m
Length of Day
9h 54m
Waning Crescent, 3% of the Moon is Illuminated
Jan 21
Waning Crescent
Jan 23
New
Jan 30
First Quarter
Feb 7
Full
Feb 14
Last Quarter

Hourly Weather History & Observations

Time (CST) Temp. Windchill Dew Point Humidity Pressure Visibility Wind Dir Wind Speed Gust Speed Precip Events Conditions
12:53 AM 28.0 °F 18.1 °F 24.1 °F 85% 29.97 in 5.0 mi North 11.5 mph - 0.00 in   Overcast
2:53 AM 27.0 °F 16.1 °F 23.0 °F 85% 29.98 in 6.0 mi North 12.7 mph - N/A   Overcast
3:53 AM 25.0 °F 12.6 °F 21.0 °F 85% 30.04 in 6.0 mi NNW 15.0 mph - N/A   Overcast
4:53 AM 25.0 °F 13.1 °F 19.9 °F 81% 30.05 in 7.0 mi North 13.8 mph - N/A   Overcast
5:53 AM 25.0 °F 14.2 °F 19.9 °F 81% 30.07 in 7.0 mi North 11.5 mph - N/A   Overcast
7:53 AM 24.1 °F 13.7 °F 19.0 °F 81% 30.15 in 7.0 mi North 10.4 mph - N/A   Overcast
8:53 AM 24.1 °F 13.1 °F 19.0 °F 81% 30.19 in 7.0 mi North 11.5 mph - N/A   Overcast
9:53 AM 25.0 °F 13.1 °F 19.0 °F 78% 30.21 in 7.0 mi North 13.8 mph - N/A   Overcast
10:53 AM 25.0 °F 13.1 °F 19.9 °F 81% 30.22 in 7.0 mi NNE 13.8 mph - N/A   Overcast
11:53 AM 26.1 °F 15.6 °F 21.0 °F 81% 30.20 in 7.0 mi NE 11.5 mph - N/A   Overcast
12:53 PM 27.0 °F 18.7 °F 21.0 °F 78% 30.19 in 7.0 mi NNE 8.1 mph - N/A   Overcast
1:53 PM 27.0 °F 18.0 °F 21.9 °F 81% 30.18 in 7.0 mi NE 9.2 mph - N/A   Overcast
2:53 PM 27.0 °F 18.0 °F 21.9 °F 81% 30.19 in 7.0 mi ENE 9.2 mph - N/A   Overcast
3:53 PM 27.0 °F 18.7 °F 21.9 °F 81% 30.20 in 7.0 mi East 8.1 mph - N/A   Overcast
4:53 PM 26.1 °F 16.8 °F 21.9 °F 84% 30.20 in 8.0 mi NE 9.2 mph - N/A   Overcast
5:00 PM 26.6 °F 18.2 °F 21.2 °F 80% 30.18 in 8.0 mi NE 8.1 mph - N/A   Overcast
5:53 PM 27.0 °F 18.0 °F 21.9 °F 81% 30.21 in 7.0 mi ENE 9.2 mph - N/A   Overcast
6:53 PM 26.1 °F 16.8 °F 21.9 °F 84% 30.21 in 5.0 mi East 9.2 mph - N/A   Overcast
7:53 PM 26.1 °F 16.2 °F 23.0 °F 88% 30.21 in 5.0 mi ENE 10.4 mph - N/A   Overcast
8:53 PM 26.1 °F 15.6 °F 21.9 °F 84% 30.19 in 4.0 mi East 11.5 mph - N/A   Overcast
9:53 PM 26.1 °F 15.6 °F 21.9 °F 84% 30.18 in 4.0 mi East 11.5 mph - N/A   Overcast
10:53 PM 26.1 °F 15.6 °F 23.0 °F 88% 30.16 in 3.0 mi ESE 11.5 mph - N/A   Overcast
11:40 PM 26.6 °F 16.8 °F 23.0 °F 86% 30.15 in 2.5 mi SE 10.4 mph - N/A   Overcast
11:53 PM 27.0 °F 17.3 °F 24.1 °F 89% 30.16 in 2.5 mi ESE 10.4 mph - N/A   Overcast